Simultaneous Nadir Overpasses (SNOs) Predictions

Prediction of SNOs between AQUA and NOAA-19 Satellite Orbit:

Table of predicted SNOs for the next 14.0 days since TLE Epoch: 2/2/2017
Index Date (AQUA) Time (AQUA) Lat,Lon (AQUA) SZA (AQUA ) Date (NOAA-19) Time (NOAA-19) Lat,Lon (NOAA-19) SZA (NOAA-19 ) Distance(km) Time Diff (sec)
1 02/04/2017 06:17:19 -80.96,-135.14 80.45 02/04/2017 06:16:34 -80.96,-135.10 80.43 0.90 45
2 02/04/2017 07:06:46 80.96, 32.51 99.55 02/04/2017 07:07:32 80.95, 32.63 99.51 2.28 46
3 02/06/2017 11:51:04 80.96, -38.48 98.87 02/06/2017 11:50:27 80.96, -38.61 98.90 2.28 37
4 02/06/2017 12:40:30 -80.95, 129.20 81.15 02/06/2017 12:41:27 -80.95, 129.36 81.20 2.74 57
5 02/08/2017 17:24:48 -80.95, 58.19 81.85 02/08/2017 17:24:21 -80.96, 58.27 81.84 1.52 27
6 02/08/2017 18:14:15 80.95,-134.20 98.15 02/08/2017 18:15:21 80.95,-134.34 98.14 2.62 66
7 02/10/2017 22:58:33 80.95, 154.73 97.44 02/10/2017 22:58:15 80.96, 154.74 97.46 0.69 18
8 02/10/2017 23:47:52 -80.76, -35.14 82.98 02/10/2017 23:48:54 -80.79, -29.94 83.49 92.90 62
9 02/13/2017 04:32:18 -80.97,-108.98 83.26 02/13/2017 04:32:09 -80.96,-108.86 83.27 2.57 9




NCC Satellite Simultaneous Nadir Overpasses (SNOs) Prediction Service
